User: anonymous   Login
Location: ?
(35.4064°N, 139.3593°E)
Time: 10:31:40
(UTC+00:00)
Language:

Cosmos 2219 Rocket - Orbit

View from above orbital plane
View from above orbital plane
View from above satellite
View from above satellite

Ground track
Ground track

The orbit data is extracted from the following two-line orbital elements,

1 22220U 92076B   24165.20118382  .00000346  00000-0  19693-3 0  9999
2 22220  71.0008  84.7396 0013633 333.4951 191.5012 14.16664121632290
Epoch (UTC): 13 June 2024 04:49:42
Eccentricity: 0.0013633
inclination: 71.0008°
perigee height: 827 km
apogee height: 846 km
right ascension of ascending node: 84.7396°
argument of perigee: 333.4951°
revolutions per day: 14.16664121
mean anomaly at epoch: 191.5012°
orbit number at epoch: 63229

The dashed part of the orbit path shows where the satellite is in the earth's shadow,  

DLR